This is the latest recevied weather packets stored in our database for station/object K4KMJ. If no packets are shown the sender has not sent any weather packets the latest 10 day(s).
| Time | Temp. | Humidity | Pressure | Rain* | Wind** | Luminosity | Snow |
|---|---|---|---|---|---|---|---|
| 1778101580 | 31.67° C | 51% | 1016.9 hPa | 0 mm | - | 341 W/m² | - |
| 1778101277 | 32.78° C | 47% | 1016.9 hPa | 0 mm | - | 304 W/m² | - |
| 1778100974 | 33.89° C | 46% | 1016.9 hPa | 0 mm | - | 451 W/m² | - |
| 1778100669 | 32.78° C | 47% | 1016.8 hPa | 0 mm | - | 450 W/m² | - |
| 1778100367 | 32.78° C | 46% | 1016.8 hPa | 0 mm | - | 390 W/m² | - |
| 1778100064 | 33.89° C | 46% | 1017 hPa | 0 mm | - | 541 W/m² | - |
| 1778099762 | 33.33° C | 47% | 1016.8 hPa | 0 mm | - | 477 W/m² | - |
| 1778099458 | 32.78° C | 46% | 1016.9 hPa | 0 mm | - | 480 W/m² | - |
| 1778099156 | 33.33° C | 45% | 1016.8 hPa | 0 mm | - | 486 W/m² | - |
| 1778098852 | 33.89° C | 45% | 1017 hPa | 0 mm | - | 470 W/m² | - |
| 1778098550 | 32.78° C | 46% | 1017.1 hPa | 0 mm | - | 532 W/m² | - |
| 1778098246 | 32.78° C | 47% | 1016.9 hPa | 0 mm | - | 570 W/m² | - |
| 1778097942 | 32.78° C | 46% | 1017.1 hPa | 0 mm | - | 601 W/m² | - |
| 1778097639 | 33.33° C | 45% | 1017.1 hPa | 0 mm | - | 608 W/m² | - |
| 1778097336 | 33.89° C | 45% | 1017 hPa | 0 mm | - | 678 W/m² | - |
| 1778097032 | 32.78° C | 44% | 1017.3 hPa | 0 mm | - | 631 W/m² | - |
| 1778096730 | 33.89° C | 45% | 1017.5 hPa | 0 mm | - | 662 W/m² | - |
| 1778096426 | 33.89° C | 45% | 1017.1 hPa | 0 mm | - | 709 W/m² | - |
| 1778096124 | 32.78° C | 46% | 1017.5 hPa | 0 mm | - | 724 W/m² | - |
| 1778095821 | 32.78° C | 46% | 1017.4 hPa | 0 mm | - | 691 W/m² | - |
| 1778095518 | 33.89° C | 44% | 1017.5 hPa | 0 mm | - | 765 W/m² | - |
| 1778095213 | 33.89° C | 45% | 1017.6 hPa | 0 mm | - | 788 W/m² | - |
| 1778094911 | 33.89° C | 46% | 1017.7 hPa | 0 mm | - | 781 W/m² | - |
| 1778094607 | 33.89° C | 45% | 1017.5 hPa | 0 mm | - | 798 W/m² | - |
| 1778094304 | 33.33° C | 46% | 1017.7 hPa | 0 mm | - | 731 W/m² | - |
* Rain latest hour (hover to see other rain measurements)
** Current wind speed in m/s (hover to see current wind gust speed)